RH
21 33 39 41 41 40 40 36 37 36 39 41 34 29 30 28 28 29 27 26 24 23 20 24 26 16 13 14 16 16 15 11 12 21 32 32 32 40 35 50 96 95 98
21 29 37 42 49 50 48 46 46 48 50 49 39 34 33 34 32 30 33 32 31 27 24 22 21 20 28 34 24 21 23 25 18 11 12 16 28 34 31 46 71 100 96
21 29 35 43 52 61 60 54 55 58 60 55 52 54 53 54 52 45 40 37 34 32 29 26 24 22 24 24 29 42 34 30 32 30 17 13 13 18 27 36 45 70 95
25 36 39 38 48 60 63 63 63 65 66 64 70 69 67 59 49 36 38 32 26 26 26 26 26 25 22 23 29 28 38 45 35 29 29 26 16 14 14 22 29 45 70
24 34 43 47 48 58 65 70 70 70 73 74 73 70 68 74 51 41 20 14 10 10 11 14 16 17 20 20 20 27 38 35 54 50 39 31 28 21 15 15 19 24 27
30 41 53 53 59 66 63 65 74 71 72 70 66 66 59 53 43 33 17 14 13 10 12 13 13 15 15 20 19 18 24 43 44 58 63 52 39 34 27 21 21 25 25
38 38 48 48 55 63 65 67 72 70 67 61 62 56 49 44 42 38 40 28 20 18 20 14 15 17 17 20 20 19 20 27 45 52 62 70 62 51 41 33 29 29 26
48 45 46 49 46 44 47 54 63 60 62 60 51 48 47 43 37 31 30 24 19 16 18 16 16 23 19 21 19 16 18 23 34 56 65 74 78 72 68 56 42 42 37
64 52 55 54 46 42 44 49 52 50 44 45 44 46 34 29 34 34 33 30 27 28 27 23 22 26 25 22 19 11 12 18 26 55 93 92 89 92 91 89 76 60 49
67 63 66 59 57 59 62 56 51 51 66 73 75 67 48 53 57 66 68 59 50 54 51 46 35 33 30 24 18 9 7 17 26 55 96 100 100 100 100 100 98 85 74
86 84 88 88 84 92 97 94 90 99 96 97 85 85 95 94 97 92 74 83 90 80 68 50 40 34 26 17 10 5 6 26 43 76 100 100 100 100 100 100 100 100 96
92 95 97 97 99 99 100 100 99 95 91 88 86 86 87 82 78 76 73 74 84 84 58 37 29 21 12 6 6 6 15 54 96 100 100 100 100 100 100 100 100 100 100
100 100 100 100 100 100 100 100 95 90 81 74 70 68 69 77 76 74 76 83 74 54 38 28 18 10 8 8 8 10 22 56 100 100 100 100 100 100 100 100 100 100 100
96 98 96 100 100 100 100 100 97 85 83 86 78 74 67 64 72 78 83 86 62 28 21 14 11 13 13 12 12 14 22 48 100 100 100 100 100 100 100 100 100 100 100
73 85 99 100 99 100 100 100 86 76 92 86 75 63 54 67 78 85 82 57 22 16 13 14 20 24 26 26 22 26 39 100 100 100 100 100 100 100 100 100 100 100 100
72 72 72 85 99 100 95 86 93 100 94 78 66 61 68 82 91 65 35 17 14 14 18 24 30 64 92 81 70 80 53 100 100 100 100 100 100 100 100 100 100 100 100
66 78 87 97 94 89 98 100 100 96 77 68 66 74 88 86 69 43 16 15 16 39 62 63 79 97 96 100 100 100 99 68 100 100 100 100 100 100 100 100 100 100 99
68 78 91 94 98 100 100 100 97 80 74 71 65 83 91 80 46 17 19 21 54 56 64 93 100 91 100 100 100 100 100 100 86 100 100 100 100 100 100 100 100 100 100
64 75 93 100 100 100 100 90 75 70 78 87 83 93 88 75 20 20 36 64 69 67 80 88 95 96 100 100 100 100 100 100 100 100 100 93 91 100 98 100 100 100 98
100 100 100 100 100 97 86 81 81 79 76 82 98 79 58 23 18 25 58 72 82 81 85 94 100 100 100 100 100 100 100 100 100 95 90 89 96 89 86 91 93 89 85
100 100 100 100 92 94 96 95 92 86 87 100 76 70 33 17 20 51 72 76 85 97 96 95 99 100 100 100 100 100 100 100 100 100 100 100 100 100 100 91 90 85 83
100 100 100 92 100 100 95 93 81 86 100 100 91 47 26 20 39 73 81 88 90 97 100 100 99 100 100 100 100 100 100 100 100 100 100 100 100 100 100 100 98 95 92
97 95 98 100 99 91 90 84 92 100 100 98 71 30 25 23 48 68 81 89 86 99 100 99 98 100 100 100 100 100 100 100 100 96 88 85 78 56 41 35 27 24 25
100 100 100 98 88 86 90 96 98 99 97 95 63 40 25 23 36 52 69 82 84 95 100 96 94 100 89 78 57 57 58 64 44 25 20 14 11 10 10 10 10 9 8
100 100 97 94 92 92 91 90 87 92 92 71 59 51 26 25 31 54 85 90 85 93 99 100 99 95 83 65 38 22 15 14 14 13 12 12 12 11 11 10 10 10 10
96 96 99 96 96 92 92 81 82 82 69 42 34 31 31 30 40 86 97 100 97 98 99 100 100 98 74 60 43 26 18 15 15 15 15 15 15 16 16 15 14 13 12
Wind_Speed
27 30 32 35 35 34 33 32 31 29 28 29 28 27 25 26 26 22 21 23 26 27 30 35 41 46 47 47 48 47 48 53 57 58 62 63 64 61 60 60 59 60 48
28 29 32 35 39 37 34 33 33 33 31 31 30 29 30 29 28 28 29 28 29 31 31 32 37 40 45 51 54 54 53 51 53 58 59 60 64 66 65 63 64 63 62
31 33 34 37 39 39 38 37 38 36 33 33 33 35 36 36 35 32 32 33 34 33 33 34 35 39 45 47 50 54 58 59 57 56 59 61 62 63 66 67 66 66 64
36 35 34 36 39 39 37 37 37 37 36 35 35 35 34 35 33 34 32 32 34 37 38 38 39 40 41 46 53 53 56 59 60 63 63 61 63 64 65 65 71 73 66
41 40 35 37 41 40 40 41 39 38 38 38 37 37 36 37 38 36 34 30 32 34 37 39 41 45 48 49 48 56 56 57 61 62 63 63 64 64 65 65 65 68 69
43 43 38 39 39 37 40 41 40 39 42 41 41 40 42 39 38 37 37 40 38 38 40 44 46 48 51 52 52 53 58 59 59 60 63 64 63 64 66 66 65 66 65
46 46 41 40 42 40 40 40 41 40 43 44 42 42 42 41 41 44 43 43 43 46 47 48 49 50 52 54 55 56 57 60 61 61 61 63 63 63 66 68 67 66 67
43 44 42 40 44 45 46 47 46 45 46 44 45 44 45 46 47 48 50 50 51 51 52 54 55 54 54 54 56 58 61 60 61 62 61 62 62 63 63 66 69 70 69
46 45 44 43 45 50 49 49 50 47 47 49 49 49 50 51 53 54 56 57 59 59 59 58 58 57 56 55 56 61 61 62 59 59 59 60 61 60 62 62 65 66 67
48 46 44 46 47 48 51 51 51 51 52 53 55 56 56 55 58 60 62 62 61 58 57 56 59 61 55 57 59 62 61 59 57 57 58 58 60 60 59 61 63 64 66
49 46 46 47 50 52 52 52 53 55 55 58 57 59 59 60 63 60 61 64 62 59 59 58 60 59 59 57 60 61 58 55 54 53 55 56 59 60 60 59 58 61 62
47 48 49 51 53 53 51 48 49 51 54 55 55 57 60 62 63 66 65 66 65 61 59 59 62 63 63 59 57 56 53 52 51 50 52 54 54 56 59 60 59 58 59
48 49 50 51 50 46 46 48 50 51 54 55 58 60 62 64 66 66 66 65 61 60 61 64 65 63 61 59 57 53 51 51 49 48 48 50 50 52 54 57 58 58 58
43 44 47 50 51 52 54 54 55 54 56 60 62 62 64 67 68 68 64 60 60 61 64 64 62 60 58 57 57 53 50 49 49 46 45 46 47 48 49 52 54 57 57
40 43 47 51 54 56 56 57 60 61 64 65 66 65 68 69 67 63 60 59 61 61 60 57 55 55 55 53 53 51 48 46 49 47 45 46 46 46 46 46 49 52 55
46 50 53 57 60 58 58 61 63 67 69 70 69 69 69 66 61 60 61 61 56 53 51 50 50 50 51 48 44 43 48 47 47 47 47 47 47 48 48 47 48 49 50
57 57 60 62 63 62 62 64 68 72 74 71 67 66 64 62 59 58 56 52 51 48 49 49 49 46 41 39 37 38 41 47 46 45 45 45 47 48 49 50 50 50 50
58 60 62 63 65 66 67 70 74 74 70 65 64 64 62 59 57 52 50 49 45 45 45 43 42 36 38 37 35 34 38 39 46 45 47 47 45 46 48 49 50 51 51
60 61 62 62 66 70 74 74 72 69 66 65 65 62 59 57 52 48 47 43 41 43 40 38 35 37 36 34 35 35 36 36 39 43 45 45 49 49 49 48 50 52 52
66 66 65 67 72 77 74 72 69 65 65 65 61 56 55 51 46 46 44 41 41 40 38 36 35 36 34 33 33 33 36 38 39 41 42 43 44 48 54 53 52 51 51
62 65 71 74 78 76 75 72 68 64 63 61 56 52 50 47 43 46 42 41 41 40 38 37 36 34 32 31 31 32 33 34 36 39 40 41 42 44 46 47 50 51 52
69 74 81 81 80 79 74 66 64 63 60 58 52 50 49 45 43 42 42 42 41 39 38 37 36 35 34 33 32 31 31 32 33 34 36 37 39 41 44 46 48 50 51
78 81 79 82 73 68 66 65 63 60 57 54 50 50 50 45 42 42 41 40 39 38 37 37 35 34 32 31 31 31 32 31 31 32 34 36 37 39 42 44 46 48 50
79 79 73 71 69 66 64 62 61 59 57 54 51 51 50 46 44 43 42 41 39 37 36 37 36 34 32 30 29 28 28 28 29 30 33 34 36 37 39 41 43 45 47
71 70 67 66 66 65 63 62 61 58 56 54 53 52 50 47 44 43 42 41 40 38 37 36 36 35 35 33 31 30 29 29 30 31 33 34 35 36 38 39 41 43 45
68 66 66 66 66 66 65 64 61 59 57 55 54 52 50 47 44 42 42 41 42 40 38 36 36 36 35 34 33 32 32 32 31 33 33 34 34 36 37 39 41 42 44
Wind_Direction
314 308 307 305 301 298 300 297 295 295 296 300 300 294 299 302 299 298 295 291 288 281 273 268 265 262 260 259 261 261 260 255 252 252 251 250 250 251 247 246 245 241 244
308 304 301 300 299 298 297 298 298 297 298 296 293 294 293 297 298 295 298 298 297 294 286 276 271 266 263 261 259 259 259 259 257 254 251 250 251 251 251 247 247 247 244
305 303 304 303 300 301 303 298 296 296 296 294 293 293 293 297 298 296 294 294 295 294 290 287 284 276 270 266 262 259 257 257 258 258 256 253 250 249 250 250 249 251 251
305 305 302 300 299 300 295 290 293 295 295 294 297 296 294 294 294 289 291 293 295 296 295 293 288 284 281 272 267 262 261 258 257 256 255 255 254 251 248 249 249 248 248
305 305 303 300 298 299 298 298 300 300 297 297 298 293 293 291 286 292 296 293 295 297 297 296 293 290 287 285 275 268 264 259 258 257 256 254 254 252 251 249 249 251 251
303 305 304 301 300 298 295 296 297 297 294 294 296 294 294 292 287 284 283 287 289 291 293 297 297 296 292 285 279 272 265 263 259 257 257 256 254 252 250 249 249 249 248
302 303 306 305 301 299 298 295 295 293 291 293 294 293 291 291 290 294 297 296 294 296 297 296 297 299 297 290 282 274 268 264 263 257 256 255 254 253 251 250 248 247 246
300 302 304 303 300 303 305 304 301 298 297 297 298 300 299 298 297 297 298 300 298 295 297 297 298 300 299 295 283 275 270 265 262 262 257 256 253 252 251 251 250 249 247
298 300 302 302 303 305 307 304 302 303 304 305 304 301 298 298 300 299 299 298 295 297 296 295 298 299 299 293 285 277 270 267 262 260 261 259 256 253 251 250 251 251 250
297 298 300 300 302 303 304 304 303 304 305 305 305 302 299 301 301 302 300 298 297 297 297 298 296 297 293 289 283 276 270 266 261 258 257 258 257 255 252 252 251 251 251
295 295 296 296 296 298 299 299 302 306 306 302 303 303 300 299 299 302 304 300 296 298 299 299 296 292 286 282 278 274 268 263 258 256 256 256 254 253 253 254 253 252 252
294 292 292 293 296 299 303 308 308 307 306 304 305 307 305 306 306 306 305 302 296 297 295 295 294 288 283 278 273 270 265 261 257 255 255 255 254 252 251 250 251 252 251
302 300 301 302 302 303 303 304 305 305 304 305 305 306 307 306 306 305 303 299 295 295 295 293 289 285 282 277 274 269 263 257 257 257 255 254 254 252 250 249 249 249 250
302 302 303 303 303 304 305 303 303 306 309 311 309 307 306 305 304 304 300 296 294 294 292 290 288 285 281 275 271 266 261 256 254 253 253 252 252 252 249 248 249 249 250
300 300 302 303 306 306 303 303 306 310 311 311 309 307 305 304 303 301 298 295 293 293 291 289 286 286 284 279 270 260 256 256 254 251 249 250 251 252 251 249 248 249 249
300 302 304 307 307 307 304 305 307 308 310 310 309 306 304 303 301 299 298 297 295 294 290 287 286 286 286 285 271 261 252 250 254 254 250 249 250 251 252 252 252 251 250
302 306 306 306 304 303 305 304 305 308 309 308 306 303 302 300 298 299 299 298 296 294 291 286 286 286 283 282 269 263 258 250 250 254 255 254 252 251 252 253 254 255 256
302 302 301 301 302 303 303 304 307 308 308 304 305 304 302 298 300 300 300 298 296 296 294 289 288 280 283 276 269 262 256 257 249 251 256 257 258 257 255 254 255 256 258
301 299 299 296 294 296 302 306 307 307 303 302 302 302 298 299 299 297 302 297 296 299 293 291 284 281 282 276 268 262 258 257 253 254 257 260 258 258 259 258 258 259 260
294 296 288 290 296 301 303 306 305 303 305 303 299 296 298 298 296 298 299 298 297 297 292 291 287 284 279 273 269 264 259 255 254 255 256 257 258 258 258 260 261 263 264
281 286 291 296 300 301 302 303 302 302 303 299 296 298 300 297 296 299 299 299 297 291 291 289 287 284 281 275 271 267 263 260 259 258 258 258 259 260 260 260 261 261 263
287 293 298 300 298 299 302 301 301 301 300 297 296 298 300 295 296 297 297 299 297 289 288 288 287 286 282 278 273 270 266 263 261 260 260 260 260 261 261 262 262 263 263
291 295 295 297 300 301 300 301 301 301 299 296 295 297 298 293 292 296 297 298 296 291 285 285 286 283 281 278 274 268 265 264 262 262 263 264 264 265 265 265 265 266 266
292 295 298 300 301 300 301 302 301 300 298 296 294 295 296 292 286 291 295 297 296 290 286 282 281 280 279 277 275 272 269 269 267 266 266 267 269 271 273 274 273 273 273
297 298 299 299 299 301 303 302 300 298 296 295 293 293 293 290 285 287 290 292 293 289 284 281 279 277 275 273 272 270 269 269 271 273 274 274 273 273 274 276 277 278 279
298 298 300 299 298 298 298 298 297 295 294 293 292 291 290 287 283 283 286 288 288 286 283 280 277 274 272 271 269 269 269 269 269 272 274 276 278 279 280 281 281 281 281